This demonstration page uses our WeatherBlox Daily Observations layout. Learn more.

Left ArrowRight Arrow

31.84235, -102.49876

Hourly Observations for July 18, 2022

Temp ( °F °C ) Dew Point ( °F °C ) Humidity (%) Winds ( mph kmh ) Pressure ( in mb ) Visibility ( mi km ) Precip ( " mm )
12:53 am 00:53 Clear 86 30 42 5.6 21 21 S 12 19 29.88 1012 10 16 0.00 0.00
1:53 am 01:53 Clear 83 28.3 43 6.1 24 24 SSW 10 17 29.88 1012 10 16 0.00 0.00
2:53 am 02:53 Clear 81 27.2 43 6.1 26 26 SW 6 9 29.87 1012 10 16 0.00 0.00
3:53 am 03:53 Clear 80 26.7 42 5.6 26 26 SW 6 9 29.87 1011 10 16 0.00 0.00
4:53 am 04:53 Clear 80 26.7 41 5 25 25 WSW 5 7 29.88 1012 10 16 0.00 0.00
5:53 am 05:53 Clear 77 25 41 5 28 28 Calm 29.88 1012 10 16 0.00 0.00
6:53 am 06:53 Clear 76 24.4 42 5.6 30 30 Calm 29.90 1013 9 14 0.00 0.00
7:53 am 07:53 Sunny 78 25.6 43 6.1 29 29 Calm 29.92 1013 9 14 0.00 0.00
8:53 am 08:53 Sunny 82 27.8 48 8.9 31 31 SSW 8 13 29.94 1014 8 13 0.00 0.00
9:53 am 09:53 Sunny 86 30 51 10.6 30 30 SSW 12 19 29.94 1014 9 14 0.00 0.00
10:53 am 10:53 Sunny 90 32.2 52 11.1 27 27 S 10 17 29.93 1014 9 14 0.00 0.00
11:53 am 11:53 Sunny 93 33.9 51 10.6 24 24 S 8 13 29.93 1014 9 14 0.00 0.00
12:53 pm 12:53 Sunny 95 35 52 11.1 23 23 VRB 6 9 29.92 1013 10 16 0.00 0.00
1:53 pm 13:53 Sunny 97 36.1 53 11.7 23 23 SSE 7 11 29.90 1013 10 16 0.00 0.00
2:53 pm 14:53 Sunny 100 37.8 51 10.6 19 19 ESE 10 17 29.87 1012 10 16 0.00 0.00
3:53 pm 15:53 Sunny 101 38.3 51 10.6 19 19 SSE 16 26 29.85 1011 10 16 0.00 0.00
4:42 pm 16:42 Sunny 101 38.3 51 10.6 19 19 S 12 19 29.71 1006 10 16 0.00 0.00
4:53 pm 16:53 Sunny 100 37.8 51 10.6 19 19 VRB 7 11 29.83 1010 10 16 0.00 0.00
5:53 pm 17:53 Sunny 102 38.9 50 10 17 17 S 13 20 29.82 1010 10 16 0.00 0.00
6:53 pm 18:53 Sunny 101 38.3 49 9.4 17 17 SE 10 17 29.81 1009 10 16 0.00 0.00
7:53 pm 19:53 Sunny 99 37.2 49 9.4 18 18 S 6 9 29.80 1009 10 16 0.00 0.00
8:53 pm 20:53 Sunny 97 36.1 49 9.4 20 20 SSE 10 17 29.80 1009 10 16 0.00 0.00
9:53 pm 21:53 Clear 95 35 49 9.4 21 21 S 12 19 29.80 1009 10 16 0.00 0.00
10:53 pm 22:53 Clear 92 33.3 50 10 24 24 SSW 15 24 29.82 1010 10 16 0.00 0.00
11:53 pm 23:53 Clear 90 32.2 50 10 25 25 SSW 16 26 29.82 1010 10 16 0.00 0.00

Powered by AerisWeather